FGRST (GLAST) (33053 NORAD) Tracking and Keplerian Element Data

This shows tracking and keplerian element data for the satellite.

Feedback or suggestion? Click here.




ElementValue
Catalog33053
NameFGRST (GLAST)
Epoch Orbit57596
Epoch Day322.67063919
Epoch Year2018
RAAN67.6894
Inclination25.5834
Eccentricity0.0012371
Argument of Perigee171.0171
Mean Anonmoly189.0586
Mean Motion15.11153824
Decay Rate4.95E-06
L11 33053U 08029A 18322.67063919 .00000495 00000-0 11591-4 0 9999
L22 33053 25.5834 67.6894 0012371 171.0171 189.0586 15.11153824575965

Live tracking and technical data element details for FGRST (GLAST) (NORAD 33053). FGRST (GLAST) can be tracked NOW for your location showing map with azimuth and elevation plus other details from your city location.

Track the satellite on the map from your city or location and see movement details for azimuth, elevation, latitude, longitude, range, height, and movement on the map or in text.







IsCatalogInMostPopularTable: catalog: 33053, numindb: 50
Update: records affected: 1



GetName: 33053 FGRST (GLAST)

Hit Count: updated at: Tue, 20 Nov 2018 00:03:41 GMT